www.pogodaiklimat.ru

Погода и климат >> Архив погоды >> Россия >> Волгоградская область >> Ольховка


ПОГОДА в Ольховке

  • Прогноз погоды в Ольховке
  • Монитор погоды в Ольховке

АРХИВ ПОГОДЫ в Ольховке

Время (UTC), дата Ветер
(напр.,м/с)
 
Видим.   Явления Облачность Т
(С)
Тd
(С)
f
(%)
Тe
(С)
Тes
(С)
Комфортность P
(гПа)
Po
(гПа)
Тmin
(С)
Tmax
(С)
R
(мм)
R24
(мм)
S
(см)
12 13.05 В 4 20 км 6/3 600 м
[Cb cap Ci fib]
+29.7 +10.0 29 +30 +34 жарко 1012.3 1003.5
15 13.05 В 2
{16}
20 км 9/8 600 м
[Cb cap Ci fib]
+24.0 +9.6 40 +25 +25 комфорт 1012.7 1003.8 +30.5
18 13.05 З 2 20 км 10/10 600 м
[Cb cap]
+18.8 +13.2 70 +20 +20 1013.0 1003.9
21 13.05 ЮЗ 3 20 км 10/10 600 м
[Cb cap]
+17.8 +13.5 76 +18 +18 1011.6 1002.5
00 14.05 З 1 20 км {ливн. осадки} 8/4 600 м
[Cb cap Ci fib]
+16.7 +14.5 87 +18 +18 1010.5 1001.4
03 14.05 Ю 1 20 км 3/3 600 м
[Cb cap Ci fib]
+16.4 +14.5 89 +17 +18 1010.7 1001.5 +16.2 0.2
06 14.05 ЮЗ 2 20 км 3/0
[Ci fib]
+22.5 +15.2 63 +26 +36 жарко 1010.6 1001.7
09 14.05 СВ 2 20 км 6/3 600 м
[Cu med, cong Ci fib]
+26.1 +13.8 47 +28 +39 жарко 1010.4 1001.6
12 14.05 Ю 1 20 км 8/4 600 м
[Cu med, cong Ci fib]
+27.7 +11.7 37 +29 +35 жарко 1010.1 1001.3
15 14.05 Ю 2 20 км 6/3 600 м
[Cu med, cong Ci fib]
+26.2 +12.5 43 +28 +29 жарко 1009.5 1000.7 +27.8
18 14.05 ЮЗ 1 20 км ясно +19.4 +15.2 77 +22 +22 комфорт 1011.2 1002.1
21 14.05 Ю 1 20 км 3/0
[Ci fib]
+16.0 +14.0 88 +17 +17 1011.3 1002.1
00 15.05 ЮЗ 1 20 км ясно +14.2 +12.9 92 +14 +14 1011.7 1002.5
03 15.05 штиль 0 20 км ясно +15.0 +13.6 91 +15 +17 1011.8 1002.6 +12.5
06 15.05 штиль 0 20 км ясно +24.9 +17.6 64 +29 +43 душно 1012.3 1003.4
09 15.05 С 1 20 км 8/6 600 м
[Cu med, cong Ci fib]
+28.6 +12.1 36 +30 +37 жарко 1012.4 1003.6
12 15.05 З 3 10 км гроза, ливневой дождь 10/10 300 м
[Cb cap]
+22.1 +15.0 64 +26 +26 душно 1013.8 1004.8
15 15.05 З 2 20 км {гроза, ливн. осадки} 10/8 600 м
[Sc Cs]
+21.4 +15.9 71 +25 +25 комфорт 1013.4 1004.4 +30.6 0.3
18 15.05 З 1 20 км {гроза, ливн. осадки} 10/6 600 м
[Sc Cs]
+17.4 +15.2 87 +18 +18 1014.6 1005.5
21 15.05 штиль 0 20 км 10/10 600 м
[Sc]
+14.6 +13.4 93 +14 +14 1015.0 1005.8
00 16.05 С 1 20 км 4/4 600 м
[Sc]
+12.6 +11.3 92 +13 +13 1015.1 1005.8
03 16.05 СЗ 2 20 км ясно +15.7 +14.0 90 +16 +17 1015.2 1006.0 +11.9
06 16.05 СЗ 2 20 км ясно +24.5 +17.1 63 +28 +39 душно 1015.3 1006.4
09 16.05 СЗ 2 20 км 3/3 600 м
[Cu med, cong]
+28.8 +15.3 44 +32 +43 душно 1015.0 1006.2
12 16.05 З 3 20 км 6/3 600 м
[Cu med, cong Ci fib]
+30.1 +12.7 34 +31 +37 жарко 1014.4 1005.6
15 16.05 СЗ 2 20 км 8/0
[Ci fib]
+28.2 +12.7 38 +30 +31 жарко 1014.2 1005.4 +30.3
18 16.05 СЗ 2 20 км 3/0
[Ac trans]
+20.4 +14.6 69 +24 +24 комфорт 1015.3 1006.2
21 16.05 В 1 20 км ясно +16.2 +13.5 84 +17 +17 1016.1 1006.9
00 17.05 СЗ 1 20 км ясно +14.5 +12.6 88 +15 +15 1016.3 1007.0
03 17.05 СЗ 2 20 км 8/0
[Ci fib]
+15.8 +13.3 85 +16 +17 1017.0 1007.7 +13.8
06 17.05 СВ 4 20 км 6/4 600 м
[Cu med, cong Ci fib]
+20.9 +13.8 64 +24 +28 комфорт 1017.8 1008.7
09 17.05 СВ 4 20 км 9/8 600 м
[Cb cap Ci fib]
+21.2 +12.1 56 +23 +25 комфорт 1018.0 1009.0
12 17.05 СВ 3 20 км 3/3 600 м
[Cu med, cong]
+23.2 +8.2 38 +24 +31 комфорт 1017.3 1008.3
15 17.05 СВ 3 20 км 8/0
[Ac trans Ci fib]
+20.3 +7.5 44 +22 +23 комфорт 1017.2 1008.1 +23.6
18 17.05 СВ 3 20 км 8/0
[Ac trans Ci fib]
+14.7 +5.0 52 +14 +14 1018.0 1008.7
21 17.05 ЮВ 1 20 км 3/0
[Ci fib]
+10.3 +5.3 71 +10 +10 1017.9 1008.5
00 18.05 СЗ 1 20 км 4/0
[Ci fib]
+7.6 +4.8 82 +7 +7 1018.6 1009.1
03 18.05 штиль 0 20 км 3/0
[Ci fib]
+8.7 +5.5 80 +8 +10 1018.9 1009.4 +5.8
06 18.05 ЮЗ 1 20 км ясно +18.6 +5.6 42 +20 +32 1017.8 1008.6
09 18.05 С 1 20 км 3/3 1000 м
[Cu hum]
+21.8 +4.1 31 +22 +36 комфорт 1016.5 1007.5
12 18.05 СВ 2 20 км 3/1 1000 м
[Cu hum Ci fib]
+23.5 +3.6 27 +23 +32 комфорт 1014.7 1005.7
15 18.05 С 1 20 км ясно +23.4 +4.9 30 +23 +25 комфорт 1013.4 1004.4 +24.1
18 18.05 СЗ 1 20 км ясно +14.9 +6.7 58 +16 +16 1013.6 1004.4
21 18.05 С 1 20 км ясно +10.1 +5.7 74 +10 +10 1014.1 1004.7
00 19.05 СЗ 1 20 км ясно +6.8 +4.4 85 +6 +6 1013.6 1004.1
03 19.05 В 1 20 км ясно +9.8 +5.8 76 +9 +11 1013.4 1004.0 +6.0
06 19.05 СВ 1 20 км ясно +20.9 +7.2 41 +23 +36 комфорт 1013.3 1004.2
09 19.05 СЗ 3 20 км ясно +24.1 +3.2 26 +23 +38 комфорт 1012.7 1003.8
12 19.05 С 4
{10}
20 км ясно +24.3 +0.8 21 +23 +30 комфорт 1012.4 1003.4
15 19.05 СЗ 3 20 км ясно +22.9 +0.7 23 +22 +23 комфорт 1012.5 1003.5 +24.6
18 19.05 З 1 20 км 8/8 600 м
[Sc]
+15.8 +4.8 48 +17 +17 1013.8 1004.6
21 19.05 С 1 20 км ясно +12.0 +1.8 50 +12 +12 1016.3 1006.9
00 20.05 С 1 20 км ясно +8.7 +1.3 60 +8 +8 1017.6 1008.1
03 20.05 штиль 0 20 км ясно +9.7 +2.3 60 +9 +12 1019.3 1009.8 +5.7
06 20.05 ЮВ 1 20 км ясно +16.2 +1.5 37 +17 +30 опасность
простуды
1020.0 1010.7
09 20.05 СЗ 3 20 км 4/3 600 м
[Cu med, cong Ci fib]
+19.3 +0.6 29 +20 +29 1019.9 1010.7

 

Местоположение метеостанции Ольховка (Волгоградская область, Россия): широта 49.87 долгота 44.55 высота над уровнем моря 76 м.

В архиве по умолчанию представлена погода в Ольховке за последнюю неделю. Архивные данные за месяц целиком и за предыдущие месяцы, начиная с января 2011 года, Вы можете получить, выбрав интересующий диапазон дат из раскрывающегося списка и нажав кнопку "Ввод!".


*Определитесь, кто Вы:
робот инопланетянин человек

Внимание! Время в таблицах - всемирное. Для получения местного времени необходимо прибавить поправку, которая равна 3 ч.

Смотрите также архив погоды в соседних городах и на ближайших метеорологических станциях:

Погода в Камышине (Волгоградская область, Россия) (63 км)
Погода в Даниловке (Волгоградская область, Россия) (64 км)
Погода в Фролове (Волгоградская область, Россия) (64 км)
Погода в Иловле (Волгоградская область, Россия) (75 км)
Погода в Михайловке (Волгоградская область, Россия) (94 км)
Погода в Рудне (Волгоградская область, Россия) (107 км)
Погода в Волгограде (Волгоградская область, Россия) (122 км)
Погода в Елани (Волгоградская область, Россия) (133 км)
Погода в Волгограде город (Волгоградская область, Россия) (134 км)
Погода в Серафимовиче (Волгоградская область, Россия) (135 км)

Пояснения к столбцам:

Ветер - указаны скорость ветра в м/с - средняя за 10 мин, порывы в срок и между сроками (в фигурных скобках) и направление, откуда дует ветер: С - северный, СВ - северо-восточный, В - восточный, ЮВ - юго-восточный, Ю - южный, ЮЗ - юго-западный, З - западный, СЗ - северо-западный.
Видимость - горизонтальная дальность видимости в метрах или километрах. При видимости от 1 до 10 км при отсутствии осадков обычно наблюдается дымка, при ухудшении видимости до 1 км и менее - туман. В сухую погоду видимость может ухудшаться дымом, пылью или мглою.
Явления - указаны атмосферные явления, наблюдавшиеся в срок или в последний час перед сроком; фигурными скобками обозначены явления, наблюдавшиеся между сроками (за 1-3 часа до срока); квадратными скобками обозначены град или гололедные отложения с указанием их диаметра в мм.
Облачность - указаны через наклонную черту общая и нижняя облачность в баллах и высота нижней границы облаков в метрах; квадратными скобками обозначены формы облаков: Ci - перистые, Cs - перисто-слоистые, Cc - перисто-кучевые, Ac - высококучевые, As - высокослоистые, Sc - слоисто-кучевые, Ns - слоисто-дождевые, Cu - кучевые, Cb - кучево-дождевые. Подробнее классификацию облаков см. в Атласе облаков (PDF).
T - Температура воздуха - температура, измеренная на высоте 2 м над землей.
Td - Температура точки росы - температура, при понижении до которой содержащийся в воздухе водяной пар достигнет насыщения.
f - Относительная влажность воздуха - влажноcть воздуха, измеренная на высоте 2 м над землей.
Te - Эффективная температура - температура, которую ощущает одетый по сезону человек в тени. Характеристика душности погоды. При расчете учитывается влияние влажности воздуха и скорости ветра на теплоощущения человека.
Tes - Эффективная температура на солнце - температура, которую ощущает человек, с поправкой на солнечный нагрев. Характеристика знойности погоды. Зависит от высоты солнца над горизонтом, облачности и скорости ветра. Ночью, в пасмурную погоду, а также при ветре 12 м/с и более поправка равна нулю.
P - Атмосферное давление - приведенное к уровню моря атмосферное давление.
Po - Атмосферное давление - измеренное на уровне метеостанции атмосферное давление.
Tmin - Минимальная температура - минимум температуры воздуха на высоте 2 м над землей.
Tmax - Максимальная температура - максимум температуры воздуха на высоте 2 м над землей.
R - Количество осадков - Количество выпавших осадков за период времени, мм. При наведении курсора мыши на число - период времени, за который выпало указанное количество осадков.
R24 - Количество осадков - Количество выпавших осадков за 24 часа, мм.
S - Снежный покров - Высота снежного покрова, см. При наведении курсора мыши на число - состояние снежного покрова и степень покрытия местности в баллах.